Weather History for KISO - June, 2013

Change the Weather History Date:

Wednesday, June 12, 2013

  Actual Average Record
Temperature  
Mean Temperature 78 °F -  
Max Temperature 91 °F 84 °F 95 °F (1986)
Min Temperature 66 °F 66 °F 45 °F (1972)
Cooling Degree Days 14    
Growing Degree Days 28 (Base 50)    
Moisture  
Dew Point 67 °F    
Average Humidity 74    
Maximum Humidity 90    
Minimum Humidity 40    
Precipitation  
Precipitation 0.00 in - - ()
Sea Level Pressure  
Sea Level Pressure 29.94 in    
Wind  
Wind Speed 4 mph (SW)    
Max Wind Speed 9 mph    
Max Gust Speed -    
Visibility 10 miles    
Events      
Averages and records for this station are not official NWS values.
T = Trace of Precipitation, MM = Missing Value Source: NWS Daily Summary

Daily Weather History Graph

Daily Weather History Graph

Search for Another Location

Airport or City:

Trip Planner

Search our weather history database for the weather conditions in past years. The results will help you decide how hot, cold, wet, or windy it might be!

Date:

Astronomy

Jun. 12, 2013 Rise Set
Actual Time 5:54 AM EDT 8:25 PM EDT
Civil Twilight 5:25 AM EDT 8:55 PM EDT
Nautical Twilight 4:48 AM EDT 9:32 PM EDT
Astronomical Twilight 4:07 AM EDT 10:13 PM EDT
Moon 9:26 AM EDT (6/12) 11:07 PM EDT (6/12)
Length of Visible Light 15h 30m
Length of Day
14h 30m
Waxing Crescent, 14% of the Moon is Illuminated
Jun 12
Waxing Crescent
Jun 16
First Quarter
Jun 23
Full
Jun 30
Last Quarter
Jul 8
New

Hourly Weather History & Observations

Time (EDT) Temp. Heat Index Dew Point Humidity Pressure Visibility Wind Dir Wind Speed Gust Speed Precip Events Conditions
12:15 AM 69.4 °F - 65.8 °F 88% 29.97 in 10.0 mi SW 3.5 mph - N/A   Clear
12:35 AM 71.2 °F - 65.5 °F 82% 29.97 in 10.0 mi SW 3.5 mph - N/A   Clear
12:55 AM 70.9 °F - 65.3 °F 82% 29.96 in 10.0 mi SW 3.5 mph - N/A   Clear
1:15 AM 69.8 °F - 65.3 °F 86% 29.96 in 10.0 mi SW 4.6 mph - N/A   Clear
1:35 AM 71.1 °F - 64.9 °F 81% 29.95 in 10.0 mi SW 4.6 mph - N/A   Clear
1:55 AM 71.2 °F - 64.8 °F 80% 29.95 in 10.0 mi WSW 4.6 mph - N/A   Clear
2:15 AM 71.8 °F - 64.4 °F 77% 29.95 in 10.0 mi WSW 3.5 mph - N/A   Clear
2:35 AM 70.3 °F - 64.4 °F 81% 29.94 in 10.0 mi WSW 4.6 mph - N/A   Clear
2:55 AM 69.4 °F - 64.6 °F 84% 29.94 in 10.0 mi SW 3.5 mph - N/A   Clear
3:15 AM 67.8 °F - 64.6 °F 89% 29.94 in 10.0 mi WSW 4.6 mph - N/A   Clear
3:35 AM 68.2 °F - 64.4 °F 88% 29.94 in 10.0 mi SSW 4.6 mph - N/A   Clear
3:55 AM 68.5 °F - 64.6 °F 87% 29.94 in 10.0 mi WSW 4.6 mph - N/A   Clear
4:15 AM 67.5 °F - 64.2 °F 89% 29.94 in 10.0 mi SW 3.5 mph - N/A   Clear
4:35 AM 66.7 °F - 63.9 °F 90% 29.94 in 10.0 mi SW 4.6 mph - N/A   Clear
4:55 AM 67.6 °F - 64.4 °F 89% 29.94 in 10.0 mi WSW 4.6 mph - N/A   Clear
5:15 AM 68.4 °F - 64.2 °F 87% 29.94 in 10.0 mi WSW 4.6 mph - N/A   Clear
5:35 AM 69.3 °F - 63.9 °F 83% 29.95 in 10.0 mi West 3.5 mph - N/A   Clear
5:55 AM 69.1 °F - 63.9 °F 83% 29.96 in 10.0 mi West 3.5 mph - N/A   Clear
6:15 AM 68.2 °F - 63.9 °F 86% 29.97 in 10.0 mi Calm Calm - N/A   Clear
6:35 AM 68.2 °F - 64.4 °F 88% 29.97 in 10.0 mi Calm Calm - N/A   Clear
6:55 AM 69.8 °F - 65.3 °F 86% 29.98 in 10.0 mi Calm Calm - N/A   Clear
6:56 AM 69.8 °F - 64.4 °F 83% 29.98 in 7.0 mi WSW 3.5 mph - N/A   Clear
7:56 AM 75.2 °F - 66.2 °F 73% 29.99 in 7.0 mi WSW 4.6 mph - N/A   Clear
8:56 AM 78.8 °F - 66.2 °F 65% 29.99 in 7.0 mi WSW 4.6 mph - N/A   Clear
9:56 AM 80.6 °F 83.2 °F 68.0 °F 65% 29.98 in 10.0 mi SW 4.6 mph - N/A   Clear
10:56 AM 84.2 °F 86.6 °F 66.2 °F 55% 29.97 in 10.0 mi WSW 4.6 mph - N/A   Clear
11:56 AM 89.6 °F 91.1 °F 64.4 °F 43% 29.96 in 10.0 mi Calm Calm - N/A   Clear
12:56 PM 89.6 °F 91.1 °F 64.4 °F 43% 29.95 in 10.0 mi SSW 8.1 mph - N/A   Clear
1:56 PM 89.6 °F 90.1 °F 62.6 °F 40% 29.94 in 10.0 mi WSW 5.8 mph - N/A   Clear
2:56 PM 89.6 °F 91.1 °F 64.4 °F 43% 29.94 in 10.0 mi West 6.9 mph - N/A   Clear
3:56 PM 91.4 °F 93.2 °F 64.4 °F 41% 29.91 in 10.0 mi WSW 8.1 mph - N/A   Clear
4:56 PM 91.4 °F 93.2 °F 64.4 °F 41% 29.90 in 10.0 mi SW 9.2 mph - N/A   Clear
5:56 PM 91.4 °F 95.4 °F 68.0 °F 46% 29.89 in 10.0 mi SSW 6.9 mph - N/A   Clear
6:56 PM 89.6 °F 93.4 °F 68.0 °F 49% 29.90 in 10.0 mi West 5.8 mph - N/A   Clear
7:56 PM 84.2 °F 88.4 °F 69.8 °F 62% 29.90 in 7.0 mi Calm Calm - N/A   Clear
8:56 PM 78.8 °F - 71.6 °F 78% 29.90 in 10.0 mi SW 3.5 mph - N/A   Clear
9:15 PM 78.8 °F - 72.5 °F 81% 29.90 in 10.0 mi Calm Calm - N/A   Clear
9:35 PM 78.8 °F - 71.4 °F 78% 29.90 in 10.0 mi SW 3.5 mph - N/A   Clear
9:55 PM 77.4 °F - 72.0 °F 83% 29.89 in 10.0 mi SSW 4.6 mph - N/A   Clear
9:56 PM 77.0 °F - 71.6 °F 83% 29.89 in 10.0 mi SSW 3.5 mph - N/A   Clear
10:15 PM 78.1 °F - 71.4 °F 80% 29.90 in 10.0 mi SSW 4.6 mph - N/A   Clear
10:35 PM 77.9 °F - 71.2 °F 80% 29.90 in 10.0 mi SSW 3.5 mph - N/A   Clear
10:55 PM 77.9 °F - 71.2 °F 80% 29.89 in 10.0 mi South 4.6 mph - N/A   Clear
11:15 PM 77.9 °F - 71.2 °F 80% 29.89 in 10.0 mi SSW 4.6 mph - N/A   Clear
11:35 PM 77.5 °F - 71.2 °F 81% 29.89 in 10.0 mi SSW 3.5 mph - N/A   Clear
11:55 PM 77.9 °F - 71.4 °F 80% 29.89 in 10.0 mi SSW 3.5 mph - N/A   Clear